Home   Weather   Kfar Saba   Past weeks

Flag for Israel Past Weather in Kfar Saba, Israel — Yesterday and Last 2 Weeks

Now
63 °F

Scattered clouds.


Feels Like: 63 °F
Forecast: 48 / 69 °F
Wind: 9 mph from Southwest

Location: Dov Airport

Current Time: Feb 23, 2017 at 11:39:44 am

Latest Report: Feb 23, 2017 at 10:50 am


Visibility: N/A

Pressure: 30.18 "Hg

Humidity: 68%

Dew Point: 52 °F

Location of Kfar SabaLocation

Past Weather in Kfar Saba — Graph

°F

Kfar Saba Temperature Yesterday

Maximum temperature yesterday: 61 °F (at 12:50 pm)
Minimum temperature yesterday: 48 °F (at 4:50 am)
Average temperature yesterday: 57 °F

High & Low Weather Summary for the Past Weeks

 TemperatureHumidityPressure
High68 °F (Feb 8, 9:50 am)94% (Feb 11, 6:00 am)30.39 "Hg (Feb 11, 6:00 am)
Low45 °F (Feb 17, 5:00 am)18% (Feb 19, 4:50 pm)29.83 "Hg (Feb 8, 9:50 am)
Average56 °F66%30.08 "Hg
* Reported Feb 8 9:50 am — Feb 23 9:50 am, Kfar Saba, Weather by CustomWeather, © 2017

Note: Actual official high and low records may vary slightly from our data, if they occured in-between our weather recording intervals... More about our weather records

Advertising

Kfar Saba Weather History for the Previous 24 Hours

Scroll right to see more
 ConditionsComfort  
Time TempWeatherWind HumidityBarometerVisibility
9:50 am
Thu, Feb 23
61 °FScattered clouds.6 mph68%30.18 "HgN/A
8:50 am57 °FScattered clouds.5 mph72%30.18 "HgN/A
7:50 am54 °FScattered clouds.5 mph77%30.15 "Hg4 mi
6:50 am50 °FScattered clouds.3 mph82%30.15 "Hg4 mi
5:50 am50 °FPassing clouds.5 mph82%30.12 "Hg4 mi
5:30 am52 °FPassing clouds.5 mph77%30.12 "Hg5 mi
10:50 pm
Wed, Feb 22
55 °FPassing clouds.5 mph72%30.09 "HgN/A
9:50 pm55 °FPassing clouds.5 mph72%30.09 "HgN/A
8:50 pm57 °FPassing clouds.1 mph67%30.07 "HgN/A
7:50 pm59 °FPassing clouds.2 mph63%30.07 "HgN/A
6:50 pm59 °FPassing clouds.3 mph63%30.07 "HgN/A
5:50 pm61 °FPassing clouds.7 mph59%30.04 "HgN/A
4:50 pm61 °FPassing clouds.8 mph55%30.04 "HgN/A
3:50 pm61 °FPassing clouds.8 mph55%30.01 "HgN/A
2:50 pm61 °FSunny.9 mph48%30.01 "Hg10 mi
1:50 pm61 °FSunny.8 mph52%30.01 "Hg10 mi
12:50 pm61 °FSunny.7 mph48%30.01 "Hg10 mi
11:50 am59 °FSunny.8 mph55%30.01 "Hg10 mi
Weather by CustomWeather, © 2017

See weather overviewHow to use our weather pages